Home   Weather   Joinville   Past weeks

Flag for Brazil Past Weather in Joinville, Santa Catarina, Brazil — Yesterday and Last 2 Weeks

39 °F

Scattered showers. Partly sunny.

Feels Like: 32 °F
Forecast: 69 / 77 °F
Wind: 10 mph from Northwest

Location: Curitiba Aeroporto

Current Time: Oct 26, 2016 at 5:14:41 PM

Latest Report: Oct 26, 2016 at 4:00 PM

Visibility: N/A

Pressure: 29.89 "Hg

Humidity: 100%

Dew Point: 39 °F

Location of JoinvilleLocation

Past Weather in Joinville — Graph


Joinville Temperature Yesterday

Maximum temperature yesterday: 72 °F (at 3:00 PM)
Minimum temperature yesterday: 64 °F (at 12:00 AM)
Average temperature yesterday: 66 °F

High & Low Weather Summary for the Past Weeks

High88 °F (Oct 16, 3:00 PM)100% (Oct 11, 9:00 PM)30.24 "Hg (Oct 11, 9:00 PM)
Low39 °F (Oct 26, 4:00 PM)32% (Oct 18, 8:00 PM)29.80 "Hg (Oct 20, 4:00 PM)
Average65 °F87%30.06 "Hg
* Reported Oct 11 3:00 PM — Oct 26 4:00 PM, Joinville, Weather by CustomWeather, © 2016

Note: Actual official high and low records may vary slightly from our data, if they occured in-between our weather recording intervals... More about our weather records


Joinville Weather History for the Previous 24 Hours

Scroll right to see more
Time TempWeatherWind HumidityBarometerVisibility
4:00 PM
Wed, Oct 26
39 °FScattered showers. Partly sunny.10 mph100%29.89 "HgN/A
3:00 PM75 °FBroken clouds.6 mph57%29.89 "HgN/A
2:00 PM75 °FBroken clouds.10 mph65%29.92 "HgN/A
1:00 PM73 °FBroken clouds.8 mph69%29.95 "HgN/A
12:00 PM72 °FPartly sunny.12 mph73%29.98 "HgN/A
11:00 AM72 °FPartly sunny.7 mph83%30.01 "HgN/A
10:00 AM68 °FPartly sunny.5 mph88%30.01 "HgN/A
9:00 AM66 °FBroken clouds.8 mph94%29.98 "HgN/A
8:00 AM64 °FMostly cloudy.6 mph100%29.98 "HgN/A
7:00 AM64 °FMostly cloudy.2 mph100%29.98 "HgN/A
6:00 AM64 °FPassing clouds.3 mph100%29.95 "HgN/A
5:00 AM64 °FMostly cloudy.1 mph100%29.98 "Hg5 mi
4:00 AM64 °FMostly cloudy.2 mph100%29.98 "HgN/A
3:00 AM64 °FMostly cloudy.3 mph100%29.98 "HgN/A
2:00 AM64 °FMostly cloudy.6 mph100%30.04 "Hg5 mi
1:00 AM64 °FMostly cloudy.3 mph100%30.07 "HgN/A
12:00 AM64 °FMostly cloudy.5 mph100%30.07 "HgN/A
11:00 PM
Tue, Oct 25
64 °FLow clouds.3 mph100%30.07 "HgN/A
10:00 PM64 °FLow clouds.7 mph100%30.07 "HgN/A
9:00 PM64 °FPassing clouds.5 mph100%30.04 "HgN/A
8:00 PM64 °FLow clouds.9 mph100%30.01 "HgN/A
7:00 PM66 °FPartly sunny.7 mph94%30.01 "HgN/A
6:00 PM66 °FMostly cloudy.8 mph94%30.01 "HgN/A
5:00 PM68 °FCloudy.8 mph88%30.01 "HgN/A
Weather by CustomWeather, © 2016

See weather overviewHow to use our weather pages